Year,Month,Day,Hour,Minute,Value (Times are PST for windspeed in km/hr)
2013,03,25,00,00,0.90
2013,03,25,00,01,0.00
2013,03,25,00,02,0.00
2013,03,25,00,03,0.00
2013,03,25,00,04,0.00
2013,03,25,00,05,0.00
2013,03,25,00,06,0.00
2013,03,25,00,07,1.40
2013,03,25,00,08,0.30
2013,03,25,00,09,0.00
2013,03,25,00,10,1.00
2013,03,25,00,11,0.00
2013,03,25,00,12,0.00
2013,03,25,00,13,3.20
2013,03,25,00,14,0.10
2013,03,25,00,15,0.00
2013,03,25,00,16,0.00
2013,03,25,00,17,0.00
2013,03,25,00,18,0.00
2013,03,25,00,19,0.00
2013,03,25,00,20,1.50
2013,03,25,00,21,3.60
2013,03,25,00,22,1.70
2013,03,25,00,23,0.80
2013,03,25,00,24,0.00
2013,03,25,00,25,0.00
2013,03,25,00,26,1.00
2013,03,25,00,27,2.10
2013,03,25,00,28,0.00
2013,03,25,00,29,2.00
2013,03,25,00,30,0.70
2013,03,25,00,31,0.60
2013,03,25,00,32,1.30
2013,03,25,00,33,0.00
2013,03,25,00,34,0.00
2013,03,25,00,35,0.00
2013,03,25,00,36,3.70
2013,03,25,00,37,3.00
2013,03,25,00,38,2.10
2013,03,25,00,39,0.10
2013,03,25,00,40,0.00
2013,03,25,00,41,0.00
2013,03,25,00,42,0.00
2013,03,25,00,43,1.40
2013,03,25,00,44,0.10
2013,03,25,00,45,1.20
2013,03,25,00,46,0.30
2013,03,25,00,47,2.10
2013,03,25,00,48,0.30
2013,03,25,00,49,0.20
2013,03,25,00,50,1.40
2013,03,25,00,51,2.90
2013,03,25,00,52,2.30
2013,03,25,00,53,0.00
2013,03,25,00,54,0.00
2013,03,25,00,55,0.00
2013,03,25,00,56,0.80
2013,03,25,00,57,0.10
2013,03,25,00,58,0.00
2013,03,25,00,59,0.90
2013,03,25,01,00,0.90
2013,03,25,01,01,0.00
2013,03,25,01,02,0.00
2013,03,25,01,03,0.00
2013,03,25,01,04,0.00
2013,03,25,01,05,0.00
2013,03,25,01,06,0.70
2013,03,25,01,07,1.00
2013,03,25,01,08,0.00
2013,03,25,01,09,0.00
2013,03,25,01,10,0.00
2013,03,25,01,11,0.00
2013,03,25,01,12,0.00
2013,03,25,01,13,0.00
2013,03,25,01,14,0.00
2013,03,25,01,15,1.50
2013,03,25,01,16,0.10
2013,03,25,01,17,0.00
2013,03,25,01,18,0.00
2013,03,25,01,19,1.10
2013,03,25,01,20,0.00
2013,03,25,01,21,0.00
2013,03,25,01,22,0.00
2013,03,25,01,23,0.00
2013,03,25,01,24,0.90
2013,03,25,01,25,2.20
2013,03,25,01,26,1.50
2013,03,25,01,27,0.00
2013,03,25,01,28,0.30
2013,03,25,01,29,0.00
2013,03,25,01,30,0.70
2013,03,25,01,31,1.40
2013,03,25,01,32,0.30
2013,03,25,01,33,0.00
2013,03,25,01,34,0.10
2013,03,25,01,35,0.90
2013,03,25,01,36,3.50
2013,03,25,01,37,1.30
2013,03,25,01,38,0.00
2013,03,25,01,39,0.00
2013,03,25,01,40,1.40
2013,03,25,01,41,2.50
2013,03,25,01,42,3.10
2013,03,25,01,43,1.80
2013,03,25,01,44,0.00
2013,03,25,01,45,1.00
2013,03,25,01,46,0.00
2013,03,25,01,47,3.00
2013,03,25,01,48,1.20
2013,03,25,01,49,0.10
2013,03,25,01,50,0.00
2013,03,25,01,51,3.60
2013,03,25,01,52,0.20
2013,03,25,01,53,0.00
2013,03,25,01,54,0.00
2013,03,25,01,55,1.40
2013,03,25,01,56,0.40
2013,03,25,01,57,0.00
2013,03,25,01,58,0.00
2013,03,25,01,59,0.00
2013,03,25,02,00,0.00
2013,03,25,02,01,0.00
2013,03,25,02,02,0.00
2013,03,25,02,03,1.70
2013,03,25,02,04,0.00
2013,03,25,02,05,0.00
2013,03,25,02,06,0.00
2013,03,25,02,07,0.20
2013,03,25,02,08,1.70
2013,03,25,02,09,0.40
2013,03,25,02,10,0.40
2013,03,25,02,11,0.00
2013,03,25,02,12,0.00
2013,03,25,02,13,0.00
2013,03,25,02,14,0.00
2013,03,25,02,15,0.00
2013,03,25,02,16,0.00
2013,03,25,02,17,0.00
2013,03,25,02,18,1.70
2013,03,25,02,19,3.20
2013,03,25,02,20,0.00
2013,03,25,02,21,0.00
2013,03,25,02,22,0.00
2013,03,25,02,23,1.70
2013,03,25,02,24,0.50
2013,03,25,02,25,1.60
2013,03,25,02,26,4.00
2013,03,25,02,27,1.50
2013,03,25,02,28,0.00
2013,03,25,02,29,0.00
2013,03,25,02,30,0.10
2013,03,25,02,31,2.30
2013,03,25,02,32,0.00
2013,03,25,02,33,0.00
2013,03,25,02,34,0.00
2013,03,25,02,35,0.00
2013,03,25,02,36,0.00
2013,03,25,02,37,0.00
2013,03,25,02,38,0.00
2013,03,25,02,39,0.00
2013,03,25,02,40,0.00
2013,03,25,02,41,1.90
2013,03,25,02,42,0.70
2013,03,25,02,43,0.00
2013,03,25,02,44,0.00
2013,03,25,02,45,0.00
2013,03,25,02,46,0.00
2013,03,25,02,47,0.00
2013,03,25,02,48,0.00
2013,03,25,02,49,0.00
2013,03,25,02,50,1.30
2013,03,25,02,51,0.80
2013,03,25,02,52,0.00
2013,03,25,02,53,0.00
2013,03,25,02,54,0.00
2013,03,25,02,55,0.00
2013,03,25,02,56,0.00
2013,03,25,02,57,0.00
2013,03,25,02,58,0.00
2013,03,25,02,59,0.00
2013,03,25,03,00,0.00
2013,03,25,03,01,0.00
2013,03,25,03,02,0.00
2013,03,25,03,03,0.00
2013,03,25,03,04,0.10
2013,03,25,03,05,3.80
2013,03,25,03,06,2.00
2013,03,25,03,07,0.10
2013,03,25,03,08,2.70
2013,03,25,03,09,0.60
2013,03,25,03,10,0.00
2013,03,25,03,11,0.00
2013,03,25,03,12,0.00
2013,03,25,03,13,0.00
2013,03,25,03,14,0.00
2013,03,25,03,15,0.00
2013,03,25,03,16,0.00
2013,03,25,03,17,0.00
2013,03,25,03,18,0.80
2013,03,25,03,19,0.00
2013,03,25,03,20,0.30
2013,03,25,03,21,1.80
2013,03,25,03,22,1.60
2013,03,25,03,23,0.10
2013,03,25,03,24,0.00
2013,03,25,03,25,2.50
2013,03,25,03,26,0.40
2013,03,25,03,27,0.00
2013,03,25,03,28,0.00
2013,03,25,03,29,2.40
2013,03,25,03,30,0.40
2013,03,25,03,31,0.00
2013,03,25,03,32,0.00
2013,03,25,03,33,0.00
2013,03,25,03,34,1.30
2013,03,25,03,35,0.30
2013,03,25,03,36,0.00
2013,03,25,03,37,0.00
2013,03,25,03,38,0.00
2013,03,25,03,39,0.00
2013,03,25,03,40,0.00
2013,03,25,03,41,0.00
2013,03,25,03,42,1.00
2013,03,25,03,43,2.60
2013,03,25,03,44,3.20
2013,03,25,03,45,0.20
2013,03,25,03,46,0.00
2013,03,25,03,47,0.00
2013,03,25,03,48,0.00
2013,03,25,03,49,0.00
2013,03,25,03,50,0.00
2013,03,25,03,51,0.00
2013,03,25,03,52,0.00
2013,03,25,03,53,0.00
2013,03,25,03,54,0.00
2013,03,25,03,55,0.00
2013,03,25,03,56,0.00
2013,03,25,03,57,0.00
2013,03,25,03,58,0.90
2013,03,25,03,59,1.40
2013,03,25,04,00,0.00
2013,03,25,04,01,0.00
2013,03,25,04,02,0.00
2013,03,25,04,03,0.00
2013,03,25,04,04,0.00
2013,03,25,04,05,0.00
2013,03,25,04,06,0.00
2013,03,25,04,07,0.00
2013,03,25,04,08,1.50
2013,03,25,04,09,0.00
2013,03,25,04,10,0.00
2013,03,25,04,11,0.00
2013,03,25,04,12,0.00
2013,03,25,04,13,0.00
2013,03,25,04,14,0.00
2013,03,25,04,15,0.00
2013,03,25,04,16,0.00
2013,03,25,04,17,0.00
2013,03,25,04,18,0.00
2013,03,25,04,19,2.30
2013,03,25,04,20,0.60
2013,03,25,04,21,0.00
2013,03,25,04,22,0.00
2013,03,25,04,23,0.00
2013,03,25,04,24,0.00
2013,03,25,04,25,0.00
2013,03,25,04,26,0.00
2013,03,25,04,27,0.00
2013,03,25,04,28,0.00
2013,03,25,04,29,0.00
2013,03,25,04,30,0.00
2013,03,25,04,31,0.00
2013,03,25,04,32,0.00
2013,03,25,04,33,0.00
2013,03,25,04,34,0.00
2013,03,25,04,35,0.00
2013,03,25,04,36,0.00
2013,03,25,04,37,0.00
2013,03,25,04,38,0.00
2013,03,25,04,39,0.00
2013,03,25,04,40,0.00
2013,03,25,04,41,0.00
2013,03,25,04,42,0.30
2013,03,25,04,43,0.00
2013,03,25,04,44,1.10
2013,03,25,04,45,0.00
2013,03,25,04,46,0.00
2013,03,25,04,47,0.30
2013,03,25,04,48,0.80
2013,03,25,04,49,0.00
2013,03,25,04,50,0.00
2013,03,25,04,51,0.00
2013,03,25,04,52,0.00
2013,03,25,04,53,0.00
2013,03,25,04,54,0.00
2013,03,25,04,55,0.00
2013,03,25,04,56,0.00
2013,03,25,04,57,0.00
2013,03,25,04,58,0.00
2013,03,25,04,59,0.00
2013,03,25,05,00,0.00
2013,03,25,05,01,0.00
2013,03,25,05,02,0.00
2013,03,25,05,03,0.00
2013,03,25,05,04,0.00
2013,03,25,05,05,0.00
2013,03,25,05,06,0.00
2013,03,25,05,07,0.00
2013,03,25,05,08,0.00
2013,03,25,05,09,0.00
2013,03,25,05,10,0.00
2013,03,25,05,11,0.00
2013,03,25,05,12,0.00
2013,03,25,05,13,0.00
2013,03,25,05,14,0.00
2013,03,25,05,15,0.00
2013,03,25,05,16,0.40
2013,03,25,05,17,0.00
2013,03,25,05,18,0.00
2013,03,25,05,19,0.00
2013,03,25,05,20,0.00
2013,03,25,05,21,0.90
2013,03,25,05,22,0.20
2013,03,25,05,23,0.00
2013,03,25,05,24,2.00
2013,03,25,05,25,0.40
2013,03,25,05,26,0.00
2013,03,25,05,27,0.00
2013,03,25,05,28,0.00
2013,03,25,05,29,0.00
2013,03,25,05,30,0.00
2013,03,25,05,31,0.70
2013,03,25,05,32,0.00
2013,03,25,05,33,0.00
2013,03,25,05,34,0.00
2013,03,25,05,35,0.00
2013,03,25,05,36,0.00
2013,03,25,05,37,0.00
2013,03,25,05,38,0.00
2013,03,25,05,39,0.00
2013,03,25,05,40,0.00
2013,03,25,05,41,0.00
2013,03,25,05,42,0.00
2013,03,25,05,43,0.00
2013,03,25,05,44,0.00
2013,03,25,05,45,0.00
2013,03,25,05,46,0.00
2013,03,25,05,47,0.00
2013,03,25,05,48,0.00
2013,03,25,05,49,0.00
2013,03,25,05,50,1.00
2013,03,25,05,51,0.30
2013,03,25,05,52,0.00
2013,03,25,05,53,0.00
2013,03,25,05,54,0.00
2013,03,25,05,55,0.10
2013,03,25,05,56,0.50
2013,03,25,05,57,0.00
2013,03,25,05,58,0.00
2013,03,25,05,59,0.00
2013,03,25,06,00,2.90
2013,03,25,06,01,0.10
2013,03,25,06,02,0.80
2013,03,25,06,03,0.00
2013,03,25,06,04,0.00
2013,03,25,06,05,0.00
2013,03,25,06,06,0.20
2013,03,25,06,07,1.40
2013,03,25,06,08,0.40
2013,03,25,06,09,0.00
2013,03,25,06,10,0.00
2013,03,25,06,11,0.40
2013,03,25,06,12,0.60
2013,03,25,06,13,2.00
2013,03,25,06,14,0.20
2013,03,25,06,15,0.00
2013,03,25,06,16,0.00
2013,03,25,06,17,0.00
2013,03,25,06,18,0.00
2013,03,25,06,19,1.40
2013,03,25,06,20,2.80
2013,03,25,06,21,2.30
2013,03,25,06,22,1.60
2013,03,25,06,23,1.60
2013,03,25,06,24,2.00
2013,03,25,06,25,0.20
2013,03,25,06,26,0.10
2013,03,25,06,27,4.50
2013,03,25,06,28,1.30
2013,03,25,06,29,0.30
2013,03,25,06,30,0.00
2013,03,25,06,31,0.00
2013,03,25,06,32,0.00
2013,03,25,06,33,0.00
2013,03,25,06,34,0.60
2013,03,25,06,35,3.10
2013,03,25,06,36,0.00
2013,03,25,06,37,0.00
2013,03,25,06,38,0.20
2013,03,25,06,39,3.00
2013,03,25,06,40,3.30
2013,03,25,06,41,0.00
2013,03,25,06,42,0.40
2013,03,25,06,43,2.00
2013,03,25,06,44,0.20
2013,03,25,06,45,0.70
2013,03,25,06,46,1.00
2013,03,25,06,47,0.50
2013,03,25,06,48,0.00
2013,03,25,06,49,0.00
2013,03,25,06,50,3.20
2013,03,25,06,51,1.00
2013,03,25,06,52,0.00
2013,03,25,06,53,0.00
2013,03,25,06,54,0.00
2013,03,25,06,55,1.80
2013,03,25,06,56,0.10
2013,03,25,06,57,0.00
2013,03,25,06,58,0.00
2013,03,25,06,59,0.30
2013,03,25,07,00,1.80
2013,03,25,07,01,0.00
2013,03,25,07,02,0.00
2013,03,25,07,03,2.00
2013,03,25,07,04,4.10
2013,03,25,07,05,2.90
2013,03,25,07,06,0.00
2013,03,25,07,07,0.00
2013,03,25,07,08,0.00
2013,03,25,07,09,0.70
2013,03,25,07,10,2.20
2013,03,25,07,11,0.40
2013,03,25,07,12,0.00
2013,03,25,07,13,0.00
2013,03,25,07,14,0.30
2013,03,25,07,15,1.10
2013,03,25,07,16,0.00
2013,03,25,07,17,0.00
2013,03,25,07,18,0.00
2013,03,25,07,19,0.00
2013,03,25,07,20,0.00
2013,03,25,07,21,0.00
2013,03,25,07,22,0.00
2013,03,25,07,23,0.20
2013,03,25,07,24,3.60
2013,03,25,07,25,1.40
2013,03,25,07,26,0.00
2013,03,25,07,27,0.00
2013,03,25,07,28,0.70
2013,03,25,07,29,0.00
2013,03,25,07,30,0.00
2013,03,25,07,31,1.50
2013,03,25,07,32,0.00
2013,03,25,07,33,0.00
2013,03,25,07,34,0.00
2013,03,25,07,35,0.00
2013,03,25,07,36,2.50
2013,03,25,07,37,0.30
2013,03,25,07,38,0.00
2013,03,25,07,39,0.00
2013,03,25,07,40,2.30
2013,03,25,07,41,2.50
2013,03,25,07,42,1.70
2013,03,25,07,43,2.20
2013,03,25,07,44,1.80
2013,03,25,07,45,0.30
2013,03,25,07,46,1.00
2013,03,25,07,47,1.80
2013,03,25,07,48,0.00
2013,03,25,07,49,0.00
2013,03,25,07,50,0.00
2013,03,25,07,51,0.00
2013,03,25,07,52,0.00
2013,03,25,07,53,0.00
2013,03,25,07,54,0.00
2013,03,25,07,55,0.50
2013,03,25,07,56,0.00
2013,03,25,07,57,0.00
2013,03,25,07,58,0.00
2013,03,25,07,59,3.60
2013,03,25,08,00,0.00
2013,03,25,08,01,0.00
2013,03,25,08,02,0.00
2013,03,25,08,03,0.00
2013,03,25,08,04,1.30
2013,03,25,08,05,2.20
2013,03,25,08,06,2.10
2013,03,25,08,07,0.00
2013,03,25,08,08,2.10
2013,03,25,08,09,0.10
2013,03,25,08,10,0.00
2013,03,25,08,11,0.00
2013,03,25,08,12,0.40
2013,03,25,08,13,0.00
2013,03,25,08,14,0.00
2013,03,25,08,15,1.20
2013,03,25,08,16,0.40
2013,03,25,08,17,0.00
2013,03,25,08,18,0.00
2013,03,25,08,19,0.00
2013,03,25,08,20,0.00
2013,03,25,08,21,1.80
2013,03,25,08,22,0.10
2013,03,25,08,23,1.30
2013,03,25,08,24,1.90
2013,03,25,08,25,2.60
2013,03,25,08,26,0.50
2013,03,25,08,27,4.60
2013,03,25,08,28,7.40
2013,03,25,08,29,9.20
2013,03,25,08,30,8.70
2013,03,25,08,31,7.80
2013,03,25,08,32,8.90
2013,03,25,08,33,11.20
2013,03,25,08,34,8.90
2013,03,25,08,35,13.90
2013,03,25,08,36,10.20
2013,03,25,08,37,6.50
2013,03,25,08,38,11.50
2013,03,25,08,39,11.00
2013,03,25,08,40,11.40
2013,03,25,08,41,7.40
2013,03,25,08,42,7.50
2013,03,25,08,43,8.90
2013,03,25,08,44,10.80
2013,03,25,08,45,11.40
2013,03,25,08,46,9.70
2013,03,25,08,47,12.70
2013,03,25,08,48,10.10
2013,03,25,08,49,12.50
2013,03,25,08,50,9.40
2013,03,25,08,51,10.70
2013,03,25,08,52,6.40
2013,03,25,08,53,8.80
2013,03,25,08,54,7.50
2013,03,25,08,55,10.50
2013,03,25,08,56,10.40
2013,03,25,08,57,10.20
2013,03,25,08,58,11.30
2013,03,25,08,59,7.10
2013,03,25,09,00,8.60
2013,03,25,09,01,10.10
2013,03,25,09,02,9.50
2013,03,25,09,03,9.40
2013,03,25,09,04,10.10
2013,03,25,09,05,9.10
2013,03,25,09,06,9.00
2013,03,25,09,07,8.30
2013,03,25,09,08,6.60
2013,03,25,09,09,7.10
2013,03,25,09,10,8.50
2013,03,25,09,11,10.10
2013,03,25,09,12,13.20
2013,03,25,09,13,11.10
2013,03,25,09,14,10.30
2013,03,25,09,15,9.20
2013,03,25,09,16,10.60
2013,03,25,09,17,6.00
2013,03,25,09,18,6.40
2013,03,25,09,19,9.90
2013,03,25,09,20,8.60
2013,03,25,09,21,10.90
2013,03,25,09,22,12.20
2013,03,25,09,23,10.00
2013,03,25,09,24,16.30
2013,03,25,09,25,12.00
2013,03,25,09,26,5.60
2013,03,25,09,27,8.50
2013,03,25,09,28,8.70
2013,03,25,09,29,3.70
2013,03,25,09,30,6.40
2013,03,25,09,31,7.80
2013,03,25,09,32,10.00
2013,03,25,09,33,14.10
2013,03,25,09,34,11.00
2013,03,25,09,35,7.80
2013,03,25,09,36,13.40
2013,03,25,09,37,11.20
2013,03,25,09,38,12.80
2013,03,25,09,39,10.10
2013,03,25,09,40,15.00
2013,03,25,09,41,13.70
2013,03,25,09,42,10.70
2013,03,25,09,43,12.90
2013,03,25,09,44,10.80
2013,03,25,09,45,9.30
2013,03,25,09,46,12.10
2013,03,25,09,47,10.70
2013,03,25,09,48,12.70
2013,03,25,09,49,14.50
2013,03,25,09,50,14.30
2013,03,25,09,51,10.50
2013,03,25,09,52,12.90
2013,03,25,09,53,9.90
2013,03,25,09,54,9.40
2013,03,25,09,55,14.70
2013,03,25,09,56,10.90
2013,03,25,09,57,14.30
2013,03,25,09,58,12.60
2013,03,25,09,59,10.80
2013,03,25,10,00,16.00
2013,03,25,10,01,13.20
2013,03,25,10,02,13.60
2013,03,25,10,03,14.70
2013,03,25,10,04,11.60
2013,03,25,10,05,14.10
2013,03,25,10,06,16.20
2013,03,25,10,07,17.80
2013,03,25,10,08,15.30
2013,03,25,10,09,14.20
2013,03,25,10,10,10.60
2013,03,25,10,11,9.40
2013,03,25,10,12,13.50
2013,03,25,10,13,12.40
2013,03,25,10,14,8.30
2013,03,25,10,15,12.40
2013,03,25,10,16,14.90
2013,03,25,10,17,10.10
2013,03,25,10,18,13.30
2013,03,25,10,19,13.10
2013,03,25,10,20,10.10
2013,03,25,10,21,13.90
2013,03,25,10,22,13.80
2013,03,25,10,23,8.00
2013,03,25,10,24,9.50
2013,03,25,10,25,10.70
2013,03,25,10,26,12.40
2013,03,25,10,27,11.10
2013,03,25,10,28,13.40
2013,03,25,10,29,14.00
2013,03,25,10,30,12.90
2013,03,25,10,31,25.00
2013,03,25,10,32,15.60
2013,03,25,10,33,18.60
2013,03,25,10,34,12.00
2013,03,25,10,35,12.90
2013,03,25,10,36,10.10
2013,03,25,10,37,11.00
2013,03,25,10,38,9.90
2013,03,25,10,39,4.90
2013,03,25,10,40,14.50
2013,03,25,10,41,16.70
2013,03,25,10,42,13.50
2013,03,25,10,43,10.60
2013,03,25,10,44,14.30
2013,03,25,10,45,11.60
2013,03,25,10,46,13.50
2013,03,25,10,47,10.60
2013,03,25,10,48,15.10
2013,03,25,10,49,18.00
2013,03,25,10,50,13.40
2013,03,25,10,51,12.50
2013,03,25,10,52,12.90
2013,03,25,10,53,15.40
2013,03,25,10,54,12.30
2013,03,25,10,55,12.20
2013,03,25,10,56,20.20
2013,03,25,10,57,18.30
2013,03,25,10,58,16.00
2013,03,25,10,59,11.70
2013,03,25,11,00,13.20
2013,03,25,11,01,19.00
2013,03,25,11,02,9.70
2013,03,25,11,03,10.80
2013,03,25,11,04,12.90
2013,03,25,11,05,16.10
2013,03,25,11,06,17.20
2013,03,25,11,07,12.70
2013,03,25,11,08,14.80
2013,03,25,11,09,19.90
2013,03,25,11,10,17.40
2013,03,25,11,11,15.20
2013,03,25,11,12,10.10
2013,03,25,11,13,5.70
2013,03,25,11,14,8.10
2013,03,25,11,15,14.50
2013,03,25,11,16,17.60
2013,03,25,11,17,10.30
2013,03,25,11,18,12.70
2013,03,25,11,19,11.80
2013,03,25,11,20,12.20
2013,03,25,11,21,6.90
2013,03,25,11,22,10.40
2013,03,25,11,23,18.50
2013,03,25,11,24,13.40
2013,03,25,11,25,15.80
2013,03,25,11,26,20.60
2013,03,25,11,27,9.00
2013,03,25,11,28,17.00
2013,03,25,11,29,15.30
2013,03,25,11,30,16.40
2013,03,25,11,31,20.00
2013,03,25,11,32,13.90
2013,03,25,11,33,14.70
2013,03,25,11,34,11.50
2013,03,25,11,35,8.50
2013,03,25,11,36,11.70
2013,03,25,11,37,13.60
2013,03,25,11,38,13.20
2013,03,25,11,39,9.90
2013,03,25,11,40,12.60
2013,03,25,11,41,12.70
2013,03,25,11,42,10.80
2013,03,25,11,43,12.70
2013,03,25,11,44,11.70
2013,03,25,11,45,12.30
2013,03,25,11,46,15.60
2013,03,25,11,47,17.60
2013,03,25,11,48,13.40
2013,03,25,11,49,10.10
2013,03,25,11,50,12.70
2013,03,25,11,51,9.30
2013,03,25,11,52,14.60
2013,03,25,11,53,13.60
2013,03,25,11,54,19.70
2013,03,25,11,55,10.80
2013,03,25,11,56,10.40
2013,03,25,11,57,7.30
2013,03,25,11,58,17.40
2013,03,25,11,59,10.20
2013,03,25,12,00,11.30
2013,03,25,12,01,11.30
2013,03,25,12,02,12.60
2013,03,25,12,03,10.70
2013,03,25,12,04,14.60
2013,03,25,12,05,11.60
2013,03,25,12,06,14.30
2013,03,25,12,07,10.20
2013,03,25,12,08,14.00
2013,03,25,12,09,14.10
2013,03,25,12,10,12.90
2013,03,25,12,11,18.90
2013,03,25,12,12,11.90
2013,03,25,12,13,6.30
2013,03,25,12,14,12.90
2013,03,25,12,15,14.30
2013,03,25,12,16,16.60
2013,03,25,12,17,11.90
2013,03,25,12,18,9.60
2013,03,25,12,19,12.10
2013,03,25,12,20,11.60
2013,03,25,12,21,13.90
2013,03,25,12,22,12.30
2013,03,25,12,23,16.00
2013,03,25,12,24,19.70
2013,03,25,12,25,15.70
2013,03,25,12,26,11.10
2013,03,25,12,27,10.70
2013,03,25,12,28,19.40
2013,03,25,12,29,19.50
2013,03,25,12,30,11.90
2013,03,25,12,31,13.20
2013,03,25,12,32,17.50
2013,03,25,12,33,15.50
2013,03,25,12,34,21.90
2013,03,25,12,35,17.40
2013,03,25,12,36,14.10
2013,03,25,12,37,16.80
2013,03,25,12,38,16.70
2013,03,25,12,39,21.30
2013,03,25,12,40,26.90
2013,03,25,12,41,17.60
2013,03,25,12,42,11.80
2013,03,25,12,43,13.90
2013,03,25,12,44,14.50
2013,03,25,12,45,11.80
2013,03,25,12,46,7.70
2013,03,25,12,47,16.10
2013,03,25,12,48,15.40
2013,03,25,12,49,13.90
2013,03,25,12,50,11.00
2013,03,25,12,51,10.70
2013,03,25,12,52,10.80
2013,03,25,12,53,8.30
2013,03,25,12,54,11.00
2013,03,25,12,55,9.60
2013,03,25,12,56,11.90
2013,03,25,12,57,14.40
2013,03,25,12,58,8.00
2013,03,25,12,59,11.70
2013,03,25,13,00,18.30
2013,03,25,13,01,15.10
2013,03,25,13,02,12.70
2013,03,25,13,03,8.60
2013,03,25,13,04,14.60
2013,03,25,13,05,16.90
2013,03,25,13,06,17.50
2013,03,25,13,07,15.00
2013,03,25,13,08,17.30
2013,03,25,13,09,13.50
2013,03,25,13,10,11.50
2013,03,25,13,11,16.20
2013,03,25,13,12,11.00
2013,03,25,13,13,16.40
2013,03,25,13,14,10.20
2013,03,25,13,15,16.90
2013,03,25,13,16,14.60
2013,03,25,13,17,13.70
2013,03,25,13,18,15.10
2013,03,25,13,19,16.60
2013,03,25,13,20,16.40
2013,03,25,13,21,13.50
2013,03,25,13,22,13.50
2013,03,25,13,23,12.90
2013,03,25,13,24,8.70
2013,03,25,13,25,13.30
2013,03,25,13,26,10.50
2013,03,25,13,27,11.50
2013,03,25,13,28,10.80
2013,03,25,13,29,12.50
2013,03,25,13,30,13.20
2013,03,25,13,31,7.00
2013,03,25,13,32,16.50
2013,03,25,13,33,14.20
2013,03,25,13,34,19.20
2013,03,25,13,35,14.50
2013,03,25,13,36,26.50
2013,03,25,13,37,8.00
2013,03,25,13,38,13.10
2013,03,25,13,39,16.60
2013,03,25,13,40,13.70
2013,03,25,13,41,12.60
2013,03,25,13,42,16.30
2013,03,25,13,43,17.60
2013,03,25,13,44,11.50
2013,03,25,13,45,10.90
2013,03,25,13,46,12.50
2013,03,25,13,47,11.40
2013,03,25,13,48,19.70
2013,03,25,13,49,14.40
2013,03,25,13,50,15.80
2013,03,25,13,51,11.50
2013,03,25,13,52,12.10
2013,03,25,13,53,9.70
2013,03,25,13,54,10.20
2013,03,25,13,55,10.20
2013,03,25,13,56,6.90
2013,03,25,13,57,12.20
2013,03,25,13,58,16.00
2013,03,25,13,59,15.00
2013,03,25,14,00,17.70
2013,03,25,14,01,14.10
2013,03,25,14,02,13.90
2013,03,25,14,03,9.90
2013,03,25,14,04,13.80
2013,03,25,14,05,11.40
2013,03,25,14,06,9.90
2013,03,25,14,07,13.00
2013,03,25,14,08,22.70
2013,03,25,14,09,14.10
2013,03,25,14,10,18.00
2013,03,25,14,11,12.50
2013,03,25,14,12,15.00
2013,03,25,14,13,14.90
2013,03,25,14,14,14.30
2013,03,25,14,15,13.50
2013,03,25,14,16,14.80
2013,03,25,14,17,14.60
2013,03,25,14,18,9.90
2013,03,25,14,19,15.30
2013,03,25,14,20,18.10
2013,03,25,14,21,15.50
2013,03,25,14,22,12.10
2013,03,25,14,23,19.70
2013,03,25,14,24,12.00
2013,03,25,14,25,13.00
2013,03,25,14,26,12.20
2013,03,25,14,27,11.90
2013,03,25,14,28,7.00
2013,03,25,14,29,7.80
2013,03,25,14,30,8.00
2013,03,25,14,31,11.40
2013,03,25,14,32,19.90
2013,03,25,14,33,8.00
2013,03,25,14,34,21.90
2013,03,25,14,35,8.60
2013,03,25,14,36,11.90
2013,03,25,14,37,9.10
2013,03,25,14,38,14.80
2013,03,25,14,39,22.00
2013,03,25,14,40,19.90
2013,03,25,14,41,13.10
2013,03,25,14,42,19.90
2013,03,25,14,43,15.10
2013,03,25,14,44,12.60
2013,03,25,14,45,11.70
2013,03,25,14,46,14.00
2013,03,25,14,47,15.20
2013,03,25,14,48,9.10
2013,03,25,14,49,10.50
2013,03,25,14,50,7.20
2013,03,25,14,51,11.40
2013,03,25,14,52,18.20
2013,03,25,14,53,9.70
2013,03,25,14,54,17.60
2013,03,25,14,55,13.70
2013,03,25,14,56,16.30
2013,03,25,14,57,10.50
2013,03,25,14,58,13.70
2013,03,25,14,59,11.30
2013,03,25,15,00,12.00
2013,03,25,15,01,16.00
2013,03,25,15,02,11.70
2013,03,25,15,03,9.20
2013,03,25,15,04,11.10
2013,03,25,15,05,9.50
2013,03,25,15,06,19.50
2013,03,25,15,07,12.50
2013,03,25,15,08,11.70
2013,03,25,15,09,15.60
2013,03,25,15,10,6.60
2013,03,25,15,11,10.40
2013,03,25,15,12,7.00
2013,03,25,15,13,19.00
2013,03,25,15,14,15.60
2013,03,25,15,15,18.60
2013,03,25,15,16,10.50
2013,03,25,15,17,10.30
2013,03,25,15,18,12.80
2013,03,25,15,19,7.60
2013,03,25,15,20,5.20
2013,03,25,15,21,5.70
2013,03,25,15,22,4.50
2013,03,25,15,23,6.90
2013,03,25,15,24,4.50
2013,03,25,15,25,8.40
2013,03,25,15,26,10.70
2013,03,25,15,27,10.30
2013,03,25,15,28,13.60
2013,03,25,15,29,11.80
2013,03,25,15,30,14.30
2013,03,25,15,31,7.50
2013,03,25,15,32,5.90
2013,03,25,15,33,12.90
2013,03,25,15,34,13.70
2013,03,25,15,35,12.70
2013,03,25,15,36,12.70
2013,03,25,15,37,10.60
2013,03,25,15,38,12.80
2013,03,25,15,39,12.20
2013,03,25,15,40,13.60
2013,03,25,15,41,19.40
2013,03,25,15,42,9.10
2013,03,25,15,43,18.40
2013,03,25,15,44,16.20
2013,03,25,15,45,16.30
2013,03,25,15,46,10.50
2013,03,25,15,47,14.10
2013,03,25,15,48,9.10
2013,03,25,15,49,13.60
2013,03,25,15,50,9.30
2013,03,25,15,51,15.60
2013,03,25,15,52,12.90
2013,03,25,15,53,7.50
2013,03,25,15,54,5.60
2013,03,25,15,55,4.60
2013,03,25,15,56,11.70
2013,03,25,15,57,14.20
2013,03,25,15,58,9.00
2013,03,25,15,59,13.20
2013,03,25,16,00,9.50
2013,03,25,16,01,8.50
2013,03,25,16,02,11.10
2013,03,25,16,03,10.60
2013,03,25,16,04,13.10
2013,03,25,16,05,13.60
2013,03,25,16,06,10.10
2013,03,25,16,07,4.80
2013,03,25,16,08,12.90
2013,03,25,16,09,12.40
2013,03,25,16,10,16.60
2013,03,25,16,11,10.30
2013,03,25,16,12,11.80
2013,03,25,16,13,11.00
2013,03,25,16,14,14.60
2013,03,25,16,15,12.60
2013,03,25,16,16,13.70
2013,03,25,16,17,12.20
2013,03,25,16,18,11.00
2013,03,25,16,19,10.50
2013,03,25,16,20,13.70
2013,03,25,16,21,11.60
2013,03,25,16,22,14.40
2013,03,25,16,23,10.20
2013,03,25,16,24,8.80
2013,03,25,16,25,10.60
2013,03,25,16,26,8.40
2013,03,25,16,27,5.30
2013,03,25,16,28,9.80
2013,03,25,16,29,9.50
2013,03,25,16,30,8.60
2013,03,25,16,31,7.20
2013,03,25,16,32,4.10
2013,03,25,16,33,9.00
2013,03,25,16,34,11.80
2013,03,25,16,35,6.20
2013,03,25,16,36,9.50
2013,03,25,16,37,7.30
2013,03,25,16,38,8.30
2013,03,25,16,39,12.20
2013,03,25,16,40,8.40
2013,03,25,16,41,10.50
2013,03,25,16,42,9.80
2013,03,25,16,43,8.00
2013,03,25,16,44,9.90
2013,03,25,16,45,11.30
2013,03,25,16,46,7.10
2013,03,25,16,47,8.30
2013,03,25,16,48,7.70
2013,03,25,16,49,8.10
2013,03,25,16,50,5.40
2013,03,25,16,51,7.70
2013,03,25,16,52,7.10
2013,03,25,16,53,7.80
2013,03,25,16,54,12.70
2013,03,25,16,55,12.50
2013,03,25,16,56,10.50
2013,03,25,16,57,9.40
2013,03,25,16,58,13.20
2013,03,25,16,59,7.30
2013,03,25,17,00,11.80
2013,03,25,17,01,8.40
2013,03,25,17,02,6.50
2013,03,25,17,03,6.30
2013,03,25,17,04,9.50
2013,03,25,17,05,6.80
2013,03,25,17,06,6.30
2013,03,25,17,07,7.80
2013,03,25,17,08,6.80
2013,03,25,17,09,5.40
2013,03,25,17,10,6.20
2013,03,25,17,11,7.20
2013,03,25,17,12,4.80
2013,03,25,17,13,7.20
2013,03,25,17,14,5.20
2013,03,25,17,15,4.30
2013,03,25,17,16,6.50
2013,03,25,17,17,7.60
2013,03,25,17,18,6.20
2013,03,25,17,19,9.90
2013,03,25,17,20,14.40
2013,03,25,17,21,9.40
2013,03,25,17,22,7.10
2013,03,25,17,23,5.30
2013,03,25,17,24,6.60
2013,03,25,17,25,6.90
2013,03,25,17,26,5.80
2013,03,25,17,27,5.00
2013,03,25,17,28,6.80
2013,03,25,17,29,7.50
2013,03,25,17,30,7.20
2013,03,25,17,31,8.60
2013,03,25,17,32,5.80
2013,03,25,17,33,4.00
2013,03,25,17,34,10.40
2013,03,25,17,35,6.20
2013,03,25,17,36,4.30
2013,03,25,17,37,7.00
2013,03,25,17,38,11.40
2013,03,25,17,39,8.50
2013,03,25,17,40,13.30
2013,03,25,17,41,5.80
2013,03,25,17,42,4.80
2013,03,25,17,43,8.60
2013,03,25,17,44,4.20
2013,03,25,17,45,9.60
2013,03,25,17,46,15.50
2013,03,25,17,47,6.50
2013,03,25,17,48,5.50